Location: Newark
(43.0000°N, 1.6781°W)
Time: 07:01:24
(UTC+00:00)

Vanguard 1 - Pass Details

Date: 01 December 2021
Orbit: 652 x 3830 km, 34.2° (Epoch: 16 January)

Event Time Altitude Azimuth Distance (km) Brightness Sun altitude
Exits shadow 04:30:03 39° 252° (WSW) 4,388 12.8 -30.1°
Maximum altitude 04:38:46 60° 195° (SSW) 3,158 12.4 -28.5°
Drops below altitude 10° 04:51:28 10° 119° (ESE) 4,357 14.2 -26.2°
Sets 04:54:14 0° 116° (ESE) 5,022 14.8 -25.7°
